Midland Airpark, TX

4:48 PM CDT on April 30, 2017 (GMT -0500)
Midland

Weather History for KMDD - May, 2013

Change the Weather History Date:

Saturday, May 18, 2013

  Actual Average (KMAF) Record (KMAF)
Temperature  
Mean Temperature 88 °F -  
Max Temperature 101 °F 87 °F 105 °F (2003)
Min Temperature 77 °F 60 °F 45 °F (1986)
Cooling Degree Days 24    
Growing Degree Days 38 (Base 50)    
Moisture  
Dew Point 38 °F    
Average Humidity 24    
Maximum Humidity 62    
Minimum Humidity 5    
Precipitation  
Precipitation 0.00 in - - ()
Sea Level Pressure  
Sea Level Pressure 29.82 in    
Wind  
Wind Speed 11 mph (SSW)    
Max Wind Speed 22 mph    
Max Gust Speed 32 mph    
Visibility 10 miles    
Events      
Averages and records for this station are not official NWS values.
T = Trace of Precipitation, MM = Missing Value Source: NWS Daily Summary

Daily Weather History Graph

Daily Weather History Graph

Search for Another Location

Airport or City:

Trip Planner

Search our weather history database for the weather conditions in past years. The results will help you decide how hot, cold, wet, or windy it might be!

Date:

Astronomy

May. 18, 2013 Rise Set
Actual Time 6:48 AM CDT 8:41 PM CDT
Civil Twilight 6:21 AM CDT 9:08 PM CDT
Nautical Twilight 5:49 AM CDT 9:41 PM CDT
Astronomical Twilight 5:14 AM CDT 10:15 PM CDT
Moon 2:09 PM CDT (5/18) 2:17 AM CDT (5/18)
Length of Visible Light 14h 46m
Length of Day
13h 52m
First Quarter, 55% of the Moon is Illuminated
May 18
First Quarter
May 24
Full
May 31
Last Quarter
Jun 8
New
Jun 16
First Quarter

Hourly Weather History & Observations

Time (CDT) Temp. Heat Index Dew Point Humidity Pressure Visibility Wind Dir Wind Speed Gust Speed Precip Events Conditions
12:15 AM 86.2 °F - 45.5 °F 24% 29.87 in 10.0 mi South 9.2 mph - N/A   Clear
12:35 AM 85.6 °F - 45.0 °F 24% 29.87 in 10.0 mi South 9.2 mph - N/A   Clear
12:55 AM 84.2 °F - 45.3 °F 26% 29.87 in 10.0 mi South 6.9 mph - N/A   Clear
1:15 AM 83.5 °F - 43.7 °F 25% 29.87 in 10.0 mi South 8.1 mph - N/A   Clear
1:35 AM 83.3 °F - 43.0 °F 24% 29.87 in 10.0 mi South 9.2 mph - N/A   Clear
1:55 AM 82.2 °F - 43.2 °F 25% 29.87 in 10.0 mi SSW 6.9 mph - N/A   Clear
2:15 AM 81.9 °F - 43.7 °F 26% 29.87 in 10.0 mi South 6.9 mph - N/A   Clear
2:35 AM 79.9 °F - 43.7 °F 28% 29.86 in 10.0 mi South 5.8 mph - N/A   Clear
2:55 AM 79.2 °F - 44.1 °F 29% 29.86 in 10.0 mi South 4.6 mph - N/A   Clear
3:15 AM 79.2 °F - 44.8 °F 30% 29.85 in 10.0 mi South 5.8 mph - N/A   Clear
3:35 AM 79.7 °F - 46.6 °F 31% 29.85 in 10.0 mi South 8.1 mph - N/A   Clear
3:55 AM 79.9 °F - 49.8 °F 35% 29.84 in 10.0 mi South 9.2 mph - N/A   Clear
4:15 AM 79.9 °F - 54.7 °F 42% 29.84 in 10.0 mi South 10.4 mph - N/A   Clear
4:35 AM 80.8 °F 80.9 °F 57.2 °F 44% 29.84 in 10.0 mi South 11.5 mph 18.4 mph N/A   Clear
4:55 AM 80.6 °F 80.9 °F 58.1 °F 46% 29.84 in 10.0 mi South 11.5 mph - N/A   Clear
5:15 AM 80.2 °F 80.8 °F 59.2 °F 48% 29.84 in 10.0 mi South 11.5 mph 19.6 mph N/A   Clear
5:35 AM 79.7 °F - 59.9 °F 51% 29.84 in 10.0 mi South 13.8 mph - N/A   Clear
5:55 AM 79.0 °F - 60.6 °F 53% 29.84 in 10.0 mi South 13.8 mph - N/A   Clear
6:15 AM 78.8 °F - 61.2 °F 55% 29.84 in 10.0 mi South 16.1 mph - N/A   Clear
6:35 AM 78.3 °F - 61.9 °F 57% 29.84 in 10.0 mi South 12.7 mph 18.4 mph N/A   Clear
6:55 AM 77.9 °F - 62.2 °F 58% 29.85 in 10.0 mi South 15.0 mph 20.7 mph N/A   Clear
7:15 AM 78.1 °F - 62.8 °F 59% 29.86 in 10.0 mi South 13.8 mph 18.4 mph N/A   Clear
7:35 AM 77.9 °F - 63.3 °F 61% 29.86 in 10.0 mi SSW 13.8 mph 20.7 mph N/A   Clear
7:55 AM 78.3 °F - 63.7 °F 61% 29.86 in 10.0 mi SSW 15.0 mph 18.4 mph N/A   Clear
8:15 AM 78.1 °F - 64.0 °F 62% 29.87 in 10.0 mi SSW 11.5 mph 19.6 mph N/A   Clear
8:35 AM 79.9 °F - 64.4 °F 59% 29.87 in 10.0 mi SSW 16.1 mph 21.9 mph N/A   Clear
8:55 AM 81.5 °F 82.9 °F 63.7 °F 55% 29.87 in 10.0 mi SSW 17.3 mph 23.0 mph N/A   Clear
9:15 AM 82.2 °F 83.3 °F 63.0 °F 52% 29.87 in 10.0 mi SSW 15.0 mph 24.2 mph N/A   Clear
9:35 AM 84.2 °F 84.4 °F 60.8 °F 45% 29.87 in 10.0 mi SSW 15.0 mph - N/A   Clear
9:55 AM 84.7 °F 84.4 °F 59.0 °F 42% 29.87 in 10.0 mi SSW 15.0 mph 21.9 mph N/A   Clear
10:15 AM 86.0 °F 84.7 °F 56.1 °F 36% 29.87 in 10.0 mi SSW 17.3 mph 21.9 mph N/A   Clear
10:35 AM 86.4 °F 85.2 °F 57.2 °F 37% 29.88 in 10.0 mi South 16.1 mph 19.6 mph N/A   Clear
10:55 AM 88.2 °F - 51.6 °F 28% 29.87 in 10.0 mi SW 15.0 mph 20.7 mph N/A   Clear
11:15 AM 89.1 °F - 51.4 °F 27% 29.87 in 10.0 mi South 16.1 mph 21.9 mph N/A   Clear
11:35 AM 90.5 °F - 46.6 °F 22% 29.87 in 10.0 mi SW 12.7 mph 23.0 mph N/A   Clear
11:55 AM 91.0 °F - 43.9 °F 19% 29.87 in 10.0 mi SW 13.8 mph 20.7 mph N/A   Clear
12:15 PM 91.6 °F - 37.0 °F 15% 29.86 in 10.0 mi WSW 9.2 mph 19.6 mph N/A   Clear
12:35 PM 93.7 °F - 32.2 °F 11% 29.85 in 10.0 mi SW 10.4 mph 16.1 mph N/A   Clear
12:55 PM 95.4 °F - 26.8 °F 9% 29.85 in 10.0 mi SSW 10.4 mph 19.6 mph N/A   Clear
1:15 PM 96.3 °F - 25.9 °F 8% 29.84 in 10.0 mi SW 9.2 mph 20.7 mph N/A   Clear
1:35 PM 97.3 °F - 25.7 °F 8% 29.83 in 10.0 mi SSW 16.1 mph 21.9 mph N/A   Clear
1:55 PM 98.6 °F - 24.3 °F 7% 29.82 in 10.0 mi SSW 12.7 mph 19.6 mph N/A   Clear
2:15 PM 98.6 °F - 23.0 °F 7% 29.82 in 10.0 mi SSW 12.7 mph 21.9 mph N/A   Clear
2:35 PM 98.8 °F - 21.6 °F 6% 29.81 in 10.0 mi SSW 11.5 mph 24.2 mph N/A   Clear
2:55 PM 99.1 °F - 21.0 °F 6% 29.80 in 10.0 mi SW 12.7 mph 24.2 mph N/A   Clear
3:15 PM 99.7 °F - 19.4 °F 6% 29.80 in 10.0 mi WSW 16.1 mph 24.2 mph N/A   Clear
3:35 PM 99.5 °F - 18.3 °F 5% 29.79 in 10.0 mi SW 17.3 mph 24.2 mph N/A   Clear
3:55 PM 99.9 °F - 18.5 °F 5% 29.78 in 10.0 mi SW 15.0 mph 24.2 mph N/A   Clear
4:15 PM 100.6 °F - 19.0 °F 5% 29.77 in 10.0 mi SW 21.9 mph 32.2 mph N/A   Clear
4:35 PM 100.2 °F - 19.0 °F 5% 29.77 in 10.0 mi SSW 13.8 mph 31.1 mph N/A   Clear
4:55 PM 100.0 °F - 18.5 °F 5% 29.75 in 10.0 mi SW 20.7 mph 27.6 mph N/A   Clear
5:15 PM 100.4 °F - 17.2 °F 5% 29.76 in 10.0 mi SW 18.4 mph 28.8 mph N/A   Clear
5:35 PM 99.9 °F - 18.3 °F 5% 29.75 in 10.0 mi SSW 17.3 mph 25.3 mph N/A   Clear
5:55 PM 99.9 °F - 18.9 °F 5% 29.75 in 10.0 mi WSW 15.0 mph 24.2 mph N/A   Clear
6:15 PM 99.1 °F - 18.1 °F 5% 29.75 in 10.0 mi SW 18.4 mph 28.8 mph N/A   Clear
6:35 PM 98.8 °F - 18.1 °F 5% 29.74 in 10.0 mi SW 15.0 mph 25.3 mph N/A   Clear
6:55 PM 98.1 °F - 17.1 °F 5% 29.74 in 10.0 mi WSW 19.6 mph 28.8 mph N/A   Clear
7:15 PM 97.3 °F - 18.5 °F 6% 29.74 in 10.0 mi SW 16.1 mph 25.3 mph N/A   Clear
7:35 PM 96.8 °F - 19.4 °F 6% 29.74 in 10.0 mi SSW 13.8 mph 17.3 mph N/A   Clear
7:55 PM 96.1 °F - 19.0 °F 6% 29.74 in 10.0 mi WSW 11.5 mph 18.4 mph N/A   Clear
8:15 PM 95.0 °F - 18.3 °F 6% 29.75 in 10.0 mi SW 16.1 mph 19.6 mph N/A   Clear
8:35 PM 93.9 °F - 16.9 °F 6% 29.75 in 10.0 mi WSW 11.5 mph 18.4 mph N/A   Clear
8:55 PM 92.5 °F - 17.1 °F 6% 29.75 in 10.0 mi WSW 10.4 mph 16.1 mph N/A   Clear
9:15 PM 90.9 °F - 18.3 °F 7% 29.75 in 10.0 mi WSW 11.5 mph - N/A   Clear
9:35 PM 90.1 °F - 17.4 °F 7% 29.76 in 10.0 mi West 11.5 mph - N/A   Clear
9:55 PM 89.1 °F - 17.6 °F 7% 29.76 in 10.0 mi West 13.8 mph - N/A   Clear
10:15 PM 88.5 °F - 18.1 °F 8% 29.77 in 10.0 mi WSW 9.2 mph - N/A   Clear
10:35 PM 87.1 °F - 19.0 °F 8% 29.78 in 10.0 mi WSW 9.2 mph - N/A   Clear
10:55 PM 84.6 °F - 19.4 °F 9% 29.79 in 10.0 mi SSE 4.6 mph - N/A   Clear
11:15 PM 86.2 °F - 38.3 °F 18% 29.80 in 10.0 mi SSE 9.2 mph - N/A   Clear
11:35 PM 85.1 °F - 43.3 °F 23% 29.81 in 10.0 mi South 11.5 mph - N/A   Clear
11:55 PM 84.2 °F 82.9 °F 54.3 °F 36% 29.82 in 10.0 mi South 15.0 mph 25.3 mph N/A   Clear